Location: Wiesbaden
(50.0830°N, 8.2500°E)
Time: 19:40:14
(UTC+02:00)

ISS - Pass Details

Date: 16 July 2019
Orbit: 409 x 418 km, 51.6° (Epoch: 20 July)

Event Time Altitude Azimuth Distance (km) Brightness Sun altitude
Rises 23:04:15 0° 217° (SW) 2,343 -0.1 -11.4°
Reaches altitude 10° 23:06:32 10° 204° (SSW) 1,483 -1.3 -11.6°
Maximum altitude 23:09:22 26° 145° (SE) 845 -2.8 -11.9°
Drops below altitude 10° 23:12:14 10° 86° (E) 1,485 -1.3 -12.1°
Sets 23:14:30 0° 74° (ENE) 2,349 -0.1 -12.3°
